Weather observations for the past three days for
Oklahoma City, Will Rogers World Airport
Imperial (Metric)
Date Time (cdt) Wind (mph) Vis. (mi.) Weather Sky Cond. Temperature (ºF) Relative Humidity Wind Chill (°F) Heat Index (°F) Pressure Precipitation (in)
Air Dwpt 6 hour altimeter (in) sea level (mb) 1 hr 3 hr 6 hr
Max. Min.
03 14:52 SE 14 G 23 10.00 A Few Clouds FEW045 93 69.1 46% 98 29.89 1010.4
03 13:52 SE 12 10.00 Fair CLR 91.9 69.1 47% 97 29.91 1010.9
03 12:52 SE 12 G 23 10.00 Fair CLR 91 69.1 91 72 49% 96 29.93 1011.6
03 11:52 SE 12 10.00 Fair CLR 88 70 55% 93 29.95 1012.3
03 10:52 SE 12 10.00 A Few Clouds FEW250 84 70 63% 88 29.95 1012.4
03 09:52 S 13 10.00 A Few Clouds FEW250 81 70 69% 84 29.96 1012.7
03 08:52 SE 15 10.00 A Few Clouds FEW050 78.1 70 76% 80 29.98 1013.4
03 07:52 S 9 10.00 Fair CLR 75 68 79% 76 29.97 1013.0
03 06:52 S 8 10.00 Fair CLR 73 68 82.9 73 84% 29.96 1012.5
03 05:52 S 8 10.00 Fair CLR 75 68 79% 76 29.94 1012.0
03 04:52 S 8 10.00 Fair CLR 75 68 79% 76 29.94 1012.0
03 03:52 S 7 10.00 Fair CLR 78.1 68 71% 80 29.94 1011.9
03 02:52 S 9 10.00 Fair CLR 79 68 69% 81 29.94 1011.7
03 01:52 SE 13 10.00 Fair CLR 81 66.9 62% 83 29.94 1011.8
03 00:52 S 13 G 23 10.00 Fair CLR 82.9 66 97 82.9 57% 85 29.94 1011.8
02 23:52 SE 17 G 26 10.00 Fair CLR 84.9 64.9 51% 87 29.93 1011.6
02 22:52 S 15 10.00 Fair CLR 87.1 64 46% 88 29.94 1011.7
02 21:52 SE 14 10.00 Fair CLR 89.1 63 42% 90 29.93 1011.5
02 20:52 SE 12 10.00 Fair CLR 91 63 39% 92 29.92 1011.2
02 19:52 SE 10 10.00 Fair CLR 91.9 62.1 37% 93 29.89 1010.5
02 18:52 SE 13 10.00 A Few Clouds FEW110 97 63 100 95 33% 99 29.89 1010.3
02 17:52 S 14 G 20 10.00 A Few Clouds FEW110 99 62.1 30% 100 29.9 1010.4
02 16:52 SE 14 G 22 10.00 A Few Clouds FEW110 99 61 29% 100 29.91 1010.8
02 15:52 SE 10 G 21 10.00 A Few Clouds FEW110 99 62.1 30% 100 29.93 1011.4
02 14:52 SE 15 G 24 10.00 Partly Cloudy SCT110 98.1 63 32% 100 29.95 1012.1
02 13:52 SE 10 G 22 10.00 A Few Clouds FEW110 98.1 64.9 34% 101 29.98 1013.1
02 12:52 S 10 10.00 A Few Clouds FEW070 96.1 64.9 97 75 36% 99 30 1014.0
02 11:52 S 9 G 20 10.00 Fair CLR 93.9 66 40% 97 30.03 1014.8
02 10:52 S 12 10.00 Fair CLR 91.9 66 43% 95 30.03 1015.1
02 09:52 S 17 10.00 Fair CLR 88 66 48% 90 30.04 1015.2
02 08:52 S 12 10.00 Fair CLR 82.9 66.9 59% 86 30.03 1015.2
02 07:52 S 8 10.00 Fair CLR 77 66.9 71% 79 30.03 1015.1
02 06:52 S 8 10.00 Fair CLR 75 66 80.1 73.9 74% 76 30.02 1014.5
02 05:52 S 6 10.00 Fair CLR 75 64.9 71% 77 30 1014.1
02 04:52 S 7 10.00 Fair CLR 75 64.9 71% 77 30 1013.8
02 03:52 S 8 10.00 Fair CLR 78.1 64 62% 80 29.99 1013.7
02 02:52 S 7 10.00 Fair CLR 77 63 62% 79 29.99 1013.6
02 01:52 S 7 10.00 Fair CLR 78.1 63 60% 80 30 1013.8
02 00:52 S 6 10.00 Fair CLR 80.1 62.1 97 79 54% 81 29.99 1013.6
01 23:52 SE 10 10.00 Fair CLR 82.9 62.1 49% 84 29.99 1013.4
01 22:52 SE 8 10.00 Fair CLR 81 62.1 53% 82 29.99 1013.7
01 21:52 S 8 10.00 Fair CLR 84.9 61 45% 85 29.97 1013.1
01 19:52 SE 10 10.00 A Few Clouds FEW110 91.9 61 36% 92 29.94 1011.9
01 18:52 S 14 10.00 A Few Clouds FEW110 97 57.9 100.9 95 27% 96 29.94 1012.0
01 17:52 SE 14 G 22 10.00 Partly Cloudy SCT095 99 57.9 26% 98 29.95 1012.2
01 16:52 SE 9 10.00 Partly Cloudy SCT100 99 57 25% 98 29.95 1012.3
01 14:52 S 13 G 25 10.00 Partly Cloudy SCT100 99 57 25% 98 29.99 1013.8
01 13:52 SE 13 10.00 Partly Cloudy SCT090 99 57 25% 98 30.01 1014.3
01 12:52 S 14 G 23 10.00 Partly Cloudy SCT080 99 57 99 71.1 25% 98 30.04 1015.1
01 11:52 SW 10 10.00 A Few Clouds FEW080 96.1 59 29% 96 30.05 1015.8
01 10:52 SW 8 G 17 10.00 Fair CLR 91.9 61 36% 92 30.06 1016.0
01 09:52 S 8 10.00 Fair CLR 84.9 62.1 46% 85 30.07 1016.2
01 08:52 S 7 10.00 Fair CLR 80.1 62.1 54% 81 30.07 1016.4
01 07:52 S 5 10.00 Fair CLR 75 61 62% 77 30.05 1015.9
01 06:52 SE 7 10.00 Fair CLR 71.1 60.1 78.1 71.1 68% 30.04 1015.3
01 04:52 S 6 10.00 Fair CLR 72 59 64% 30.03 1014.9
01 03:52 S 6 10.00 Fair CLR 73 57.9 59% 30.02 1014.5
01 02:52 S 6 10.00 Fair CLR 73.9 57.9 57% 30.01 1014.3
01 01:52 SE 6 10.00 Fair CLR 75.9 57.9 54% 78 30.01 1014.3
01 00:52 S 6 10.00 Fair CLR 77 57.9 97 77 52% 79 30.01 1014.2
31 23:52 S 5 10.00 Fair CLR 78.1 57 48% 79 30 1014.1
31 22:52 S 6 10.00 Fair CLR 80.1 57 45% 80 30 1013.9
31 21:52 S 10 10.00 Fair CLR 87.1 55.9 35% 86 29.99 1013.4
31 20:52 SE 9 10.00 Fair CLR 87.1 55 34% 85 29.96 1012.7
31 19:52 SE 9 10.00 Fair CLR 91 54 28% 89 29.95 1012.3
31 18:52 SE 15 10.00 A Few Clouds FEW110 97 55 100.9 97 24% 95 29.95 1012.2
31 17:52 S 15 10.00 A Few Clouds FEW095 99 55.9 24% 98 29.94 1012.1
31 16:52 S 17 G 25 10.00 Partly Cloudy SCT095 100 57 24% 99 29.95 1012.3
31 15:52 SE 16 10.00 Partly Cloudy FEW005 SCT100 100 57 24% 99 29.97 1012.8
Date Time (cdt) Wind (mph) Vis. (mi.) Weather Sky Cond. Air Dwpt Max. Min. Relative Humidity Wind Chill (°F) Heat Index (°F) altimeter (in) sea level (mb) 1 hr 3 hr 6 hr
6 hour
Temperature (ºF) Pressure Precipitation (in)